This demonstration page uses our WeatherBlox Daily Observations layout. Learn more.

Left ArrowRight Arrow

31.84235, -102.49876

Hourly Observations for May 24, 2021

Temp ( °F °C ) Dew Point ( °F °C ) Humidity (%) Winds ( mph kmh ) Pressure ( in mb ) Visibility ( mi km ) Precip ( " mm )
12:53 am 00:53 Clear 72 22.2 61 16.1 68 68 SE 17 28 29.90 1013 10 16 0.00 0.00
1:53 am 01:53 Clear 71 21.7 59 15 66 66 SSE 16 26 29.90 1013 10 16 0.00 0.00
2:53 am 02:53 Clear 70 21.1 61 16.1 73 73 SSE 17 28 29.88 1012 10 16 0.00 0.00
3:41 am 03:41 Mostly Cloudy 69 20.6 62 16.7 78 78 SE 16 26 29.86 1011 10 16 0.00 0.00
3:53 am 03:53 Partly Cloudy 69 20.6 62 16.7 78 78 SE 16 26 29.86 1011 10 16 0.00 0.00
4:19 am 04:19 Mostly Cloudy 69 20.6 62 16.7 78 78 SSE 15 24 29.89 1012 10 16 0.00 0.00
4:53 am 04:53 Cloudy 68 20 62 16.7 81 81 SSE 16 26 29.87 1011 10 16 0.00 0.00
5:53 am 05:53 Cloudy 69 20.6 61 16.1 76 76 S 24 39 29.88 1012 10 16 0.00 0.00
6:53 am 06:53 Mostly Cloudy 68 20 61 16.1 78 78 SSE 16 26 29.88 1012 10 16 0.00 0.00
7:35 am 07:35 Partly Cloudy 69 20.6 62 16.7 78 78 S 18 30 29.89 1012 10 16 0.00 0.00
7:53 am 07:53 Sunny 70 21.1 62 16.7 76 76 S 18 30 29.89 1012 10 16 0.00 0.00
8:53 am 08:53 Sunny 72 22.2 61 16.1 68 68 S 14 22 29.89 1012 10 16 0.00 0.00
9:53 am 09:53 Sunny 75 23.9 62 16.7 64 64 S 12 19 29.90 1012 10 16 0.00 0.00
10:53 am 10:53 Sunny 78 25.6 62 16.7 58 58 S 12 19 29.91 1013 10 16 0.00 0.00
11:53 am 11:53 Sunny 80 26.7 61 16.1 52 52 S 9 15 29.90 1013 10 16 0.00 0.00
12:53 pm 12:53 Mostly Sunny 82 27.8 61 16.1 49 49 VRB 5 7 29.88 1012 10 16 0.00 0.00
1:53 pm 13:53 Mostly Sunny 85 29.4 59 15 42 42 S 10 17 29.85 1011 10 16 0.00 0.00
2:53 pm 14:53 Sunny 83 28.3 60 15.6 46 46 S 18 30 29.85 1011 10 16 0.00 0.00
3:53 pm 15:53 Sunny 85 29.4 58 14.4 40 40 S 13 20 29.83 1010 10 16 0.00 0.00
4:53 pm 16:53 Mostly Sunny 86 30 57 13.9 37 37 S 17 28 29.81 1009 10 16 0.00 0.00
5:53 pm 17:53 Sunny 87 30.6 52 11.1 30 30 S 9 15 29.78 1008 10 16 0.00 0.00
6:53 pm 18:53 Sunny 87 30.6 54 12.2 32 32 SSE 15 24 29.77 1008 10 16 0.00 0.00
7:53 pm 19:53 Mostly Sunny 84 28.9 57 13.9 40 40 S 21 33 29.79 1009 10 16 0.00 0.00
8:53 pm 20:53 Clear 78 25.6 59 15 52 52 S 18 30 29.82 1010 10 16 0.00 0.00
9:53 pm 21:53 Clear 76 24.4 60 15.6 58 58 S 17 28 29.82 1010 10 16 0.00 0.00
10:53 pm 22:53 Mostly Clear 76 24.4 61 16.1 60 60 WNW 17 28 29.91 1013 10 16 0.00 0.00
11:00 pm 23:00 Mostly Cloudy 76 24.4 58 14.4 54 54 WNW 13 20 29.88 1012 10 16 0.00 0.00
11:18 pm 23:18 Cloudy with Nearby Thunderstorms 76 24.4 55 12.8 48 48 W 15 24 29.89 1012 10 16 0.00 0.00
11:33 pm 23:33 Cloudy with Thunderstorms 75 23.9 50 10 41 41 W 10 17 29.89 1012 10 16 0.00 0.00
11:53 pm 23:53 Cloudy with Strong Thunderstorms 68 20 56 13.3 65 65 WSW 9 15 29.93 1014 3 4 0.12 3.05

Powered by AerisWeather